SCOUT X-4 R/B, 1358

Orbit data source: Space-Track

SCOUT X-4 R/B, 1358 is space debris in LEO originally from a launch on Thu, 29 Apr 1965 UTC launched from the Wallops Island (WLPIS). Debris objects in space refer to the collection of defunct objects orbiting the Earth. Examples of debris include non-operational satellites, rocket bodies, and fragments generated from explosions, collisions, or faulty payload assembly.

Loading next visibility...
Identifier
1358, 1965-032B
Orbit
LEO
Last TLE update
2 days ago
Origin
Manufacturer
ABL
Mission
Spacecraft
Bus & Motor
ALTAIR, Unknown motor
Mass
33 kg wet, 33 kg dry
Launch date (UTC)
1965-04-29 (60 years ago)
Launch vehicle
Unknown
Launch site
Wallops Island (WLPIS)
Object type
Payload
Rocket body
Debris
Shape & HBR
Cyl, 1.5 m
Radar Cross Section
0.687 m², Medium (>0.1 m² and < 1m²)

Expand to show TLE details & history

TLE from 2 days ago
0 SCOUT X-4 R/B
1  1358U 65032B   25108.10533844 -.00000038  00000-0  67474-4 0  9991
2  1358  41.1897  84.4310 0245026 176.4162 183.8411 13.38213624931197
Epoch: 2025-04-18T02:31Z
Definitive object data (Epoch: 2025-04-18T02:31:41.241Z)
Latitude
-0.00001°
Longitude
-159.95851°
Altitude
1,298.758 km
Speed
7.12 km/s
True Right ascension
05h 37m 43s
True Declination
0° 00' 00"
Sunlit
Object was in daylight at TLE epoch
Visualization TLE readout
Latitude
-40.57982°
Longitude
114.98241°
Altitude
1,135.166 km
Speed
7.282 km/s
Apparent Right ascension
21h 57m 24s
Apparent Declination
-45° 02' 11"
Sunlit
Object is in daylight
Visualization observer readout
Local Sidereal Time
07:34:36
Azimuth
247.069° WSW
Elevation
-63.402°
Doppler factor
1
Orbital elements
Apogee altitude
1,301.676 km
Perigee altitude
934.327 km
Semi-major axis
7,496.139 km
Eccentricity
0.0245026
Inclination
41.1897°
RAAN
84.431°
Arg. of periapsis
176.4162°
True anomaly
183.65859°
Mean anomaly
183.8411°
Eccentric anomaly
183.7493°
Mean motion
3.34416 °/min
BSTAR
0.000067474
Orbital period
107.65 mins
Loading maneuver chart data...
Loading SW <> Apogee altitude chart data...
Loading historical data...
Loading historical data...
Loading historical data...
Loading historical data...
Loading historical data...
Loading historical data...
Loading historical data...
Other satellites on launch #32 in the year 1965 (1965-04-29 UTC)

SCOUT X-4 R/B Visibility forecast

Observer location: undefined°, undefined°

Span
Click to sort rows by Start time (UTC) header in descending order
Start Az.
Max El. time (UTC)
Max El. Az.
Max El.
End time (UTC)
End Az.
14 mins2025-04-20 01:17:37.797Z226.719° WSW2025-04-20 01:24:37.797Z155.899° SSE39.69°2025-04-20 01:31:37.797Z78.322° E
13 mins2025-04-20 03:12:37.797Z262.011° W2025-04-20 03:18:37.797Z355.03° N44.928°2025-04-20 03:25:37.797Z80.8° E
12 mins2025-04-20 05:06:37.797Z280.735° WNW2025-04-20 05:12:37.797Z310.671° NW44.971°2025-04-20 05:18:37.797Z101.634° ESE
11 mins2025-04-20 07:00:37.797Z278.042° WNW2025-04-20 07:06:37.797Z200.822° SSW35.744°2025-04-20 07:11:37.797Z141.912° SSE
7 mins2025-04-20 22:44:37.797Z160.047° S2025-04-20 22:47:37.797Z136.739° SSE14.826°2025-04-20 22:51:37.797Z105.538° ESE
7 mins2025-04-21 00:34:37.797Z215.822° SW2025-04-21 00:40:37.797Z153.89° SSE36.346°2025-04-21 00:41:37.797Z132.663° SE
|